[[{"header":{"parameterUnit":"m.s-1","parameterCategory":1,"la1":30.2991,"la2":30.254,"lo1":-89.0895,"lo2":-89.0444,"dy":0.0017,"dx":0.0017,"nx":28,"ny":28,"refTime":"2024-10-18T09:00:00:Z","depth":0,"parameterNumber":2,"parameterNumberName":"U-component_of_WINDS"},"data":[0,0,0,0,0,0,0,0,0,0,0,0,0,0,0,0,0,0,0,0,0,0,0,0,0,0,0,0,0,0,0,0,0,0,0,0,0,0,0,0,0,0,0,0,0,0,0,0,0,0,0,0,0,0,0,0,0,0,-6.8263,-6.8264,0,-6.8365,-6.8366,-6.8368,-6.8207,-6.8202,-6.8196,-6.8191,-6.83,-6.8308,-6.8316,0,0,0,0,0,0,0,0,0,0,0,0,0,-6.7934,-6.7941,-6.8263,-6.8265,-6.8266,-6.8365,-6.8366,-6.8368,-6.8208,-6.8201,-6.8195,-6.8188,-6.8297,-6.8307,-6.8316,0,0,0,0,0,0,0,0,0,0,0,0,0,-6.8061,-6.7943,-6.8263,-6.8198,-6.8193,-6.8365,-6.8367,-6.8368,-6.821,-6.8201,-6.8193,-6.8185,-6.8294,-6.8306,-6.8318,-6.8559,0,0,-6.8355,-6.836,0,0,0,0,0,0,0,0,-6.8054,-6.8073,-6.8206,-6.8203,-6.8198,-6.8265,-6.829,-6.8432,-6.8212,-6.8204,-6.8191,-6.8181,-6.8295,-6.8307,-6.8344,-6.8564,-6.8569,-6.8356,-6.8363,-6.8368,-6.8372,0,0,0,0,0,0,0,-6.8045,-6.8068,-6.8304,-6.8208,-6.8203,-6.8165,-6.8174,-6.8316,-6.8295,-6.8204,-6.8192,-6.8206,-6.8291,-6.8333,-6.8346,-6.857,-6.8355,-6.8366,-6.8374,-6.8378,-6.8995,-6.9004,0,0,0,0,0,0,-6.8044,-6.8062,-6.83,-6.8307,-6.8104,-6.8178,-6.8188,-6.8252,-6.8293,-6.8291,-6.8213,-6.8198,-6.8316,-6.8332,-6.8349,-6.8635,-6.8368,-6.838,-6.8387,-6.8986,-6.8997,-6.9007,0,0,0,0,0,0,-6.8038,-6.8067,-6.8296,-6.8181,-6.8207,-6.8192,-6.8266,-6.8258,-6.83,-6.83,-6.8296,-6.826,-6.831,-6.8332,-6.8508,-6.8637,-6.8385,-6.8396,-6.8975,-6.8989,-6.9002,-6.921,0,0,0,0,0,0,-6.8029,-6.8065,-6.8156,-6.8184,-6.8214,-6.8453,-6.8274,-6.8266,-6.832,-6.8302,-6.8343,-6.8341,-6.8306,-6.8491,-6.852,-6.8649,-6.8406,-6.8964,-6.8981,-6.8998,-6.9191,-6.9229,-6.9261,0,0,0,0,0,-6.8018,-6.8211,-6.8162,-6.8191,-6.8327,-6.8461,-6.8478,-6.8432,-6.8331,-6.8423,-6.8424,-6.834,-6.8618,-6.851,-6.8542,-6.8676,-6.8955,-6.8976,-6.8996,-6.9176,-6.9222,-6.926,0,0,0,0,0,0,-6.82,-6.8214,-6.8159,-6.8367,-6.8414,-6.8433,-6.8548,-6.8481,-6.8559,-6.8539,-6.8479,-6.8489,-6.8679,-6.8695,-6.8575,-6.8913,-6.877,-6.8798,-6.8896,-6.8939,-6.8973,-6.8966,-6.8416,0,0,0,0,0,-6.8264,-6.837,-6.8377,-6.856,-6.8586,-6.8564,-6.862,-6.858,-6.8627,-6.8646,-6.8659,-6.8709,-6.8807,-6.8874,-6.8964,-6.9192,-6.92,-6.93,-6.9335,-6.9364,-6.9389,-6.9513,-6.9558,-6.9074,-6.9074,-6.9074,0,0,-6.8398,-6.8419,-6.849,-6.8597,-6.8629,-6.8742,-6.8581,-6.8707,-6.8791,-6.8666,-6.8833,-6.8845,-6.8896,-6.91,-6.919,-6.9119,-6.9524,-6.939,-6.9413,-6.9423,-6.9538,-6.9584,-6.9625,-6.9088,-6.9086,-6.9083,0,0,-6.87,-6.8726,-6.8882,-6.8917,-6.8966,-6.895,-6.8988,-6.9018,-6.902,-6.9187,-6.9096,-6.9195,-6.9365,-6.9406,-6.9449,-6.9768,-6.9695,-6.9799,-6.9982,-7.0103,-7.0141,-7.0175,-7.029,-7.0332,-6.9824,-6.9825,-6.9825,0,-6.8861,-6.9026,-6.8971,-6.9104,-6.9155,-6.9045,-6.9204,-6.924,-6.9318,-6.9356,-6.9275,-6.9487,-6.9514,-6.9726,-6.9804,-6.9842,-6.9885,-6.9795,-7.014,-7.0173,-7.0203,-7.0313,-7.0356,-6.9837,-6.9836,-6.9834,-6.9833,0,-6.9223,-6.9339,-6.9459,-6.9536,-6.96,-6.9745,-6.9713,-6.9785,-6.974,-6.9732,-6.9904,-6.9933,-7.0028,-7.0075,-7.0032,-7.0282,-7.0237,-7.0149,-7.0004,-7.0263,-7.0365,-7.0406,-6.9855,-6.9851,-6.9847,-6.9844,0,0,-6.9644,-6.9687,-6.9733,-6.9767,-6.9813,-6.9903,-7.0044,-7.0135,-7.0199,-7.0256,-7.0374,-7.0521,-7.0439,-7.0489,-7.045,-7.0556,-7.0809,-7.0455,-7.0455,-7.0521,-7.1088,-7.1156,-7.1205,-7.076,-7.0768,-7.0774,-7.1085,0,-6.9946,-7.0188,-7.0142,-7.0379,-7.0486,-7.0384,-7.0507,-7.055,-7.0547,-7.0639,-7.0636,-7.0742,-7.0626,-7.0655,-7.0755,-7.0757,-7.0922,-7.0734,-7.0871,-7.0877,-7.0863,-7.1258,-7.1329,-7.1621,-7.1124,-7.1131,-7.1136,0,-7.0331,-7.0402,-7.065,-7.068,-7.0723,-7.0834,-7.0915,-7.1004,-7.1051,-7.1041,-7.1097,-7.1038,-7.118,-7.1033,-7.1229,-7.1101,-7.1155,-7.1164,-7.1175,-7.1187,-7.1023,-7.1283,-7.1713,-7.1758,-7.1197,-7.1192,-7.1188,0,-7.0616,-7.0773,-7.0941,-7.0973,-7.1013,-7.1093,-7.1114,-7.1152,-7.1211,-7.1282,-7.1319,-7.1407,-7.1455,-7.1525,-7.1492,-7.1387,-7.1695,-7.1544,-7.1693,-7.1695,-7.1764,-7.176,-7.2211,-7.1796,-7.1795,-7.1795,-7.1794,0,-7.096,-7.1116,-7.107,-7.1174,-7.1346,-7.1292,-7.1464,-7.1473,-7.1508,-7.1613,-7.153,-7.163,-7.158,-7.1677,-7.1653,-7.182,-7.1842,-7.184,-7.1832,-7.1848,-7.1849,-7.1884,-7.1863,-7.1806,-7.1804,-7.1801,-7.1799,0,-7.1307,-7.1283,-7.146,-7.1482,-7.1492,-7.1618,-7.1637,-7.1735,-7.1725,-7.186,-7.1888,-7.1874,-7.1985,-7.1958,-7.2079,-7.2062,-7.2274,-7.2239,-7.2258,-7.225,-7.2401,-7.2388,-7.2891,-7.2955,-7.2498,-7.2502,-7.2506,0,-7.1529,-7.1646,-7.1681,-7.1745,-7.1771,-7.1875,-7.1934,-7.1886,-7.1951,-7.2014,-7.2105,-7.2208,-7.2287,-7.2469,-7.2471,-7.2564,-7.2532,-7.2702,-7.2545,-7.2559,-7.2537,-7.2531,-7.2543,-7.2734,-7.2739,-7.2743,-7.2747,0,-7.1926,-7.1908,-7.1995,-7.208,-7.2152,-7.2216,-7.2272,-7.233,-7.2286,-7.2364,-7.2475,-7.2537,-7.266,-7.2764,-7.285,-7.2872,-7.2804,-7.2795,-7.2835,-7.2854,-7.2861,-7.2861,-7.2344,-7.2785,-7.2781,-7.2778,-7.2776,-7.2774,-7.2218,-7.2318,-7.2359,-7.2459,-7.2496,-7.2551,-7.2645,-7.2647,-7.2738,-7.2834,-7.28,-7.2928,-7.2973,-7.3081,-7.3114,-7.3214,-7.315,-7.3207,-7.3222,-7.3237,-7.3257,-7.2844,-7.3229,-7.3228,-7.3227,-7.3226,-7.3225,0,-7.2612,-7.2633,-7.2726,-7.2807,-7.2887,-7.2813,-7.2872,-7.2944,-7.3058,-7.3105,-7.3185,-7.3314,-7.3414,-7.3424,-7.3519,-7.3598,-7.3569,-7.3624,-7.3619,-7.3626,-7.3307,-7.3264,-7.3646,-7.3646,-7.3646,-7.3646,-7.3646,-7.3646,-7.2827,-7.2992,-7.298,-7.3164,-7.3183,-7.3307,-7.3347,-7.3398,-7.3435,-7.3583,-7.3665,-7.367,-7.3703,-7.38,-7.3889,-7.3889,-7.3929,-7.3998,-7.3987,-7.369,-7.3648,-7.3608,-7.3567,-7.4006,-7.4007,-7.4296,-7.4299,-7.4301]},{"header":{"parameterUnit":"m.s-1","parameterCategory":1,"la1":30.2991,"la2":30.254,"lo1":-89.0895,"lo2":-89.0444,"dy":0.0017,"dx":0.0017,"nx":28,"ny":28,"refTime":"2024-10-18T09:00:00:Z","depth":0,"parameterNumber":3,"parameterNumberName":"V-component_of_WINDS"},"data":[0,0,0,0,0,0,0,0,0,0,0,0,0,0,0,0,0,0,0,0,0,0,0,0,0,0,0,0,0,0,0,0,0,0,0,0,0,0,0,0,0,0,0,0,0,0,0,0,0,0,0,0,0,0,0,0,0,0,-1.9234,-1.9234,0,-1.9202,-1.9201,-1.9201,-1.9165,-1.9165,-1.9164,-1.9164,-1.9131,-1.9131,-1.913,0,0,0,0,0,0,0,0,0,0,0,0,0,-1.9264,-1.9263,-1.9234,-1.9234,-1.9233,-1.9202,-1.9201,-1.9201,-1.9165,-1.9165,-1.9164,-1.9163,-1.9131,-1.9131,-1.913,0,0,0,0,0,0,0,0,0,0,0,0,0,-1.9243,-1.9263,-1.9234,-1.9212,-1.9209,-1.9202,-1.9201,-1.9201,-1.9165,-1.9165,-1.9164,-1.9163,-1.9131,-1.9131,-1.913,-1.9142,0,0,-1.9128,-1.9128,0,0,0,0,0,0,0,0,-1.9244,-1.9242,-1.9215,-1.9213,-1.9211,-1.9187,-1.92,-1.9181,-1.9166,-1.9182,-1.9164,-1.9163,-1.915,-1.9148,-1.9144,-1.9141,-1.9139,-1.9128,-1.9128,-1.9128,-1.9127,0,0,0,0,0,0,0,-1.9246,-1.9243,-1.9221,-1.9215,-1.9212,-1.9203,-1.9199,-1.9196,-1.9171,-1.9181,-1.9178,-1.9175,-1.9149,-1.9144,-1.9143,-1.9139,-1.9128,-1.9128,-1.9127,-1.9127,-1.9141,-1.9142,0,0,0,0,0,0,-1.9251,-1.9245,-1.9222,-1.922,-1.9226,-1.9203,-1.9199,-1.9195,-1.9171,-1.9166,-1.9175,-1.9173,-1.9146,-1.9143,-1.9141,-1.9152,-1.9128,-1.9127,-1.9127,-1.9141,-1.9142,-1.9142,0,0,0,0,0,0,-1.9251,-1.9249,-1.9224,-1.9232,-1.9228,-1.9203,-1.92,-1.9195,-1.919,-1.9167,-1.9162,-1.9176,-1.9145,-1.9142,-1.9142,-1.9151,-1.9127,-1.9126,-1.914,-1.9141,-1.9142,-1.9175,0,0,0,0,0,0,-1.9252,-1.9249,-1.9254,-1.9232,-1.9227,-1.9225,-1.92,-1.9195,-1.919,-1.9186,-1.9166,-1.9162,-1.9144,-1.9143,-1.9141,-1.9149,-1.9126,-1.9139,-1.914,-1.9142,-1.9173,-1.9177,-1.9181,0,0,0,0,0,-1.9254,-1.9265,-1.9255,-1.9252,-1.9233,-1.9226,-1.9223,-1.9202,-1.9191,-1.9195,-1.9179,-1.9162,-1.915,-1.9143,-1.9141,-1.9149,-1.9138,-1.914,-1.9142,-1.9171,-1.9176,-1.918,0,0,0,0,0,0,-1.929,-1.9262,-1.925,-1.9255,-1.9243,-1.922,-1.9224,-1.9209,-1.92,-1.9197,-1.9172,-1.9168,-1.917,-1.9159,-1.9152,-1.9158,-1.9142,-1.9143,-1.9165,-1.9169,-1.9173,-1.9175,-1.9125,0,0,0,0,0,-1.9298,-1.9295,-1.9271,-1.9278,-1.9272,-1.9249,-1.9245,-1.9231,-1.9217,-1.9212,-1.9196,-1.9184,-1.9176,-1.9173,-1.9165,-1.9171,-1.9165,-1.9176,-1.918,-1.9183,-1.9184,-1.9184,-1.9188,-1.9148,-1.9148,-1.9148,0,0,-1.9316,-1.9301,-1.93,-1.9285,-1.9273,-1.927,-1.9245,-1.9243,-1.924,-1.9211,-1.9209,-1.9198,-1.9182,-1.9184,-1.9184,-1.9175,-1.9194,-1.9185,-1.9188,-1.9187,-1.9187,-1.919,-1.9194,-1.9149,-1.9149,-1.9148,0,0,-1.9346,-1.9335,-1.9338,-1.9327,-1.931,-1.9295,-1.9295,-1.9274,-1.9265,-1.9262,-1.924,-1.9236,-1.9225,-1.9214,-1.9207,-1.9231,-1.9214,-1.9229,-1.9249,-1.9249,-1.9252,-1.9255,-1.9262,-1.9265,-1.923,-1.923,-1.923,0,-1.937,-1.9364,-1.9342,-1.934,-1.9333,-1.9307,-1.9309,-1.93,-1.9281,-1.9277,-1.9267,-1.9251,-1.9239,-1.9237,-1.9243,-1.9239,-1.9238,-1.9231,-1.9254,-1.9256,-1.9258,-1.9265,-1.9268,-1.9232,-1.9232,-1.9232,-1.9232,0,-1.9394,-1.939,-1.9394,-1.9376,-1.937,-1.9371,-1.9348,-1.9344,-1.9329,-1.9314,-1.9311,-1.9295,-1.9283,-1.9281,-1.9268,-1.9277,-1.9272,-1.9259,-1.9241,-1.9265,-1.927,-1.9272,-1.9235,-1.9234,-1.9234,-1.9233,0,0,-1.9447,-1.9415,-1.9417,-1.9408,-1.9386,-1.9382,-1.9381,-1.9368,-1.9365,-1.9353,-1.935,-1.934,-1.9327,-1.9319,-1.9303,-1.9304,-1.9322,-1.929,-1.9289,-1.9295,-1.9329,-1.9339,-1.9342,-1.9311,-1.9311,-1.9312,-1.933,0,-1.9472,-1.9468,-1.9447,-1.9449,-1.9444,-1.9418,-1.9416,-1.9402,-1.9388,-1.9381,-1.9366,-1.9358,-1.9342,-1.9337,-1.9337,-1.932,-1.9328,-1.9318,-1.9307,-1.9307,-1.9311,-1.9345,-1.9356,-1.9374,-1.9332,-1.9333,-1.9333,0,-1.9501,-1.949,-1.9491,-1.9467,-1.9465,-1.9464,-1.9449,-1.9444,-1.9427,-1.9416,-1.9406,-1.9389,-1.9384,-1.9369,-1.9362,-1.9356,-1.935,-1.9341,-1.9341,-1.9338,-1.9321,-1.9343,-1.938,-1.9382,-1.9336,-1.9336,-1.9336,0,-1.9537,-1.9523,-1.9521,-1.9514,-1.9487,-1.9487,-1.9475,-1.9458,-1.9451,-1.9439,-1.9433,-1.9421,-1.9414,-1.9404,-1.9383,-1.9374,-1.9378,-1.9361,-1.9368,-1.9369,-1.937,-1.937,-1.9406,-1.9368,-1.9368,-1.9368,-1.9368,0,-1.9567,-1.9569,-1.9536,-1.9535,-1.9535,-1.9511,-1.9512,-1.9498,-1.9482,-1.9477,-1.9454,-1.945,-1.9422,-1.9415,-1.9398,-1.9394,-1.9391,-1.9382,-1.9377,-1.9383,-1.9384,-1.9378,-1.9376,-1.9369,-1.9368,-1.9368,-1.9368,0,-1.9608,-1.9587,-1.9582,-1.9557,-1.9551,-1.9552,-1.9529,-1.9527,-1.9511,-1.9504,-1.9502,-1.9476,-1.9466,-1.9443,-1.9427,-1.9416,-1.9415,-1.9408,-1.9421,-1.9418,-1.9426,-1.9425,-1.9458,-1.9461,-1.9423,-1.9423,-1.9424,0,-1.9628,-1.9628,-1.9602,-1.9597,-1.9586,-1.9579,-1.9571,-1.9547,-1.954,-1.9519,-1.9519,-1.9506,-1.9495,-1.9479,-1.9459,-1.9446,-1.9437,-1.945,-1.9435,-1.9441,-1.9436,-1.9435,-1.9434,-1.9453,-1.9453,-1.9454,-1.9454,0,-1.9665,-1.9654,-1.9644,-1.963,-1.9622,-1.961,-1.9596,-1.9593,-1.9565,-1.9558,-1.9547,-1.9538,-1.9521,-1.9508,-1.9491,-1.9479,-1.9462,-1.9459,-1.946,-1.9465,-1.9472,-1.9467,-1.9428,-1.9458,-1.9458,-1.9458,-1.9457,-1.9457,-1.9695,-1.9693,-1.9674,-1.9663,-1.965,-1.9638,-1.9634,-1.9616,-1.9606,-1.959,-1.9576,-1.9566,-1.9547,-1.9523,-1.9511,-1.9502,-1.9494,-1.9495,-1.9496,-1.9496,-1.9498,-1.9475,-1.9499,-1.9499,-1.9499,-1.9499,-1.9499,0,-1.973,-1.9716,-1.9706,-1.9687,-1.9679,-1.9663,-1.9646,-1.964,-1.9631,-1.9615,-1.9604,-1.959,-1.9577,-1.9555,-1.954,-1.9537,-1.9528,-1.9534,-1.9533,-1.953,-1.9507,-1.9507,-1.9541,-1.9541,-1.9541,-1.9541,-1.9541,-1.9541,-1.9746,-1.9742,-1.9728,-1.9717,-1.9703,-1.9692,-1.9684,-1.9672,-1.9659,-1.9644,-1.9633,-1.9619,-1.96,-1.9583,-1.957,-1.9564,-1.9559,-1.9567,-1.9558,-1.9536,-1.9532,-1.9529,-1.9529,-1.9566,-1.9566,-1.9582,-1.9582,-1.9582]}]]